Flag for Austria Weather past 2 weeks in Tulln an der Donau, Lower Austria, Austria

Now
73 °F

Partly sunny.


Feels Like: 76 °F
Forecast: 50 / 71 °F
Wind: 9 mph from Southeast

Location: Tulln Airport

Current Time: Apr 25, 2015 at 1:18:26 PM

Latest Report: Apr 25, 2015 at 12:50 PM


Visibility: 37 mi

Pressure: 29.89 "Hg

Humidity: 27%

Dew point: 37 °F

Location of Tulln an der DonauLocation

Historic Weather in Tulln an der Donau — Graph

°F

Tulln an der Donau temperature yesterday

Maximum temperature yesterday: 68 °F (at 2:50 PM)
Minimum temperature yesterday: 45 °F (at 5:50 AM)
Average temperature yesterday: 59 °F

Past Weeks' High & Low Weather Summary

 TemperatureHumidityPressure
High77 °F (Apr 16, 12:50 PM)100% (Apr 13, 5:50 AM)30.45 "Hg (Apr 13, 5:50 AM)
Low36 °F (Apr 19, 5:50 AM)22% (Apr 16, 12:50 PM)29.80 "Hg (Apr 17, 2:50 PM)
Average57 °F54%30.13 "Hg
* Reported Apr 10 11:50 AM — Apr 25 11:50 AM, Tulln an der Donau, Weather by CustomWeather, © 2015

Note: Actual official high and low records may vary slightly from our data, if they occured in-between our weather recording intervals... More about our weather records

Advertising

Tulln an der Donau weather history for previous 24 hours

 ConditionsComfort  
Time TempWeatherWind HumidityBarometerVisibility
11:50 AM
Sat, Apr 25
72 °FScattered clouds.6 mph44%29.92 "Hg37 mi
10:50 AM66 °FScattered clouds.7 mph52%29.95 "Hg37 mi
9:50 AM57 °FScattered clouds.3 mph63%29.95 "Hg37 mi
8:50 AM52 °FScattered clouds.1 mph72%29.95 "Hg37 mi
7:50 AM48 °FScattered clouds.No wind82%29.95 "Hg37 mi
6:50 AM41 °FFog.No wind93%29.95 "Hg37 mi
5:50 AM39 °FFog.No wind93%29.95 "Hg31 mi
10:50 PM
Fri, Apr 24
48 °FClear.2 mph71%29.95 "Hg25 mi
9:50 PM54 °FClear.2 mph58%29.95 "Hg25 mi
7:50 PM61 °FSunny.6 mph42%29.95 "Hg25 mi
6:50 PM64 °FPassing clouds.9 mph40%29.95 "Hg31 mi
5:50 PM66 °FPassing clouds.12 mph37%29.95 "Hg31 mi
4:50 PM68 °FPassing clouds.10 mph33%29.95 "Hg31 mi
3:50 PM68 °FPassing clouds.13 mph28%29.98 "Hg31 mi
2:50 PM68 °FScattered clouds.12 mph30%29.98 "Hg31 mi
1:50 PM66 °FScattered clouds.15 mph26%30.01 "Hg31 mi
Weather by CustomWeather, © 2015

See weather overviewHow to use our weather pages